TimePST,TemperatureF,Dew PointF,Humidity,Sea Level PressureIn,VisibilityMPH,Wind Direction,Wind SpeedMPH,Gust SpeedMPH,PrecipitationIn,Events,Conditions,WindDirDegrees,DateUTC
12:15 AM,48.2,48.2,100,29.95,5.0,SE,11.5,18.4,N/A,,Overcast,140,2012-11-17 08:15:00
12:35 AM,48.2,48.2,100,29.95,2.5,SE,12.7,23.0,0.05,,Overcast,140,2012-11-17 08:35:00
12:55 AM,48.2,48.2,100,29.94,2.5,SE,9.2,18.4,0.06,,Overcast,140,2012-11-17 08:55:00
1:15 AM,48.2,48.2,100,29.94,0.5,SE,11.5,17.3,0.02,,Overcast,140,2012-11-17 09:15:00
1:35 AM,48.2,48.2,100,29.93,1.2,SSE,10.4,-,0.07,,Overcast,160,2012-11-17 09:35:00
1:55 AM,48.2,48.2,100,29.93,4.0,SE,10.4,16.1,0.08,,Overcast,140,2012-11-17 09:55:00
2:15 AM,48.2,48.2,100,29.93,3.0,SE,12.7,20.7,0.03,,Overcast,140,2012-11-17 10:15:00
2:35 AM,48.2,48.2,100,29.93,5.0,SSE,11.5,18.4,0.05,,Overcast,150,2012-11-17 10:35:00
2:55 AM,48.2,48.2,100,29.92,5.0,SE,9.2,17.3,0.06,,Overcast,140,2012-11-17 10:55:00
3:15 AM,48.2,48.2,100,29.92,3.0,SE,11.5,17.3,0.01,,Overcast,140,2012-11-17 11:15:00
3:35 AM,48.2,48.2,100,29.92,2.5,SE,8.1,19.6,0.07,,Overcast,140,2012-11-17 11:35:00
3:55 AM,48.2,48.2,100,29.91,4.0,SE,10.4,29.9,0.09,,Overcast,130,2012-11-17 11:55:00
4:15 AM,48.2,48.2,100,29.91,3.0,SSE,8.1,23.0,0.04,,Overcast,150,2012-11-17 12:15:00
4:35 AM,48.2,48.2,100,29.91,3.0,SE,11.5,24.2,0.08,,Overcast,130,2012-11-17 12:35:00
4:55 AM,48.2,46.4,93,29.90,2.5,SE,8.1,20.7,0.14,,Overcast,140,2012-11-17 12:55:00
5:15 AM,48.2,46.4,93,29.90,1.8,SSE,8.1,23.0,0.06,,Overcast,150,2012-11-17 13:15:00
5:35 AM,48.2,46.4,93,29.91,7.0,SE,12.7,20.7,0.07,,Overcast,140,2012-11-17 13:35:00
5:55 AM,48.2,46.4,93,29.90,1.5,SE,13.8,23.0,0.16,,Overcast,140,2012-11-17 13:55:00
6:15 AM,48.2,46.4,93,29.89,5.0,SE,9.2,19.6,N/A,,Overcast,140,2012-11-17 14:15:00
6:35 AM,48.2,46.4,93,29.90,4.0,SSE,6.9,21.9,N/A,,Overcast,150,2012-11-17 14:35:00
6:55 AM,46.4,46.4,100,29.90,2.0,SSE,9.2,19.6,N/A,,Overcast,150,2012-11-17 14:55:00
7:15 AM,46.4,46.4,100,29.89,2.5,SSE,12.7,26.5,N/A,,Overcast,150,2012-11-17 15:15:00
7:35 AM,46.4,46.4,100,29.89,1.8,SE,11.5,19.6,N/A,,Overcast,140,2012-11-17 15:35:00
7:55 AM,48.2,46.4,93,29.90,5.0,SE,10.4,24.2,0.01,,Overcast,130,2012-11-17 15:55:00
8:15 AM,48.2,46.4,93,29.90,1.8,SE,9.2,16.1,0.05,,Overcast,140,2012-11-17 16:15:00
8:35 AM,48.2,46.4,93,29.90,1.2,SSE,6.9,-,0.10,,Overcast,150,2012-11-17 16:35:00
9:15 AM,48.2,48.2,100,29.90,1.8,SSE,11.5,23.0,0.01,,Overcast,150,2012-11-17 17:15:00
9:35 AM,48.2,48.2,100,29.90,0.8,SSE,9.2,17.3,0.09,,Overcast,160,2012-11-17 17:35:00
9:55 AM,48.2,48.2,100,29.91,0.5,SSE,9.2,21.9,0.15,,Overcast,160,2012-11-17 17:55:00
10:15 AM,48.2,48.2,100,29.92,0.5,South,8.1,-,0.04,,Overcast,180,2012-11-17 18:15:00
10:35 AM,48.2,48.2,100,29.93,0.8,South,5.8,16.1,0.04,,Overcast,190,2012-11-17 18:35:00
10:55 AM,48.2,48.2,100,29.92,1.0,South,8.1,-,0.06,,Overcast,180,2012-11-17 18:55:00
11:15 AM,48.2,48.2,100,29.92,1.0,South,8.1,18.4,0.04,,Overcast,180,2012-11-17 19:15:00
11:35 AM,48.2,48.2,100,29.91,0.5,South,8.1,18.4,0.15,,Overcast,180,2012-11-17 19:35:00
11:55 AM,48.2,48.2,100,29.92,0.8,South,9.2,-,0.23,,Overcast,190,2012-11-17 19:55:00
12:15 PM,48.2,48.2,100,29.92,0.8,South,8.1,25.3,0.05,,Overcast,180,2012-11-17 20:15:00
12:35 PM,48.2,48.2,100,29.92,0.8,South,3.5,-,0.12,,Overcast,180,2012-11-17 20:35:00
12:55 PM,50.0,48.2,94,29.92,1.0,South,5.8,-,0.15,,Overcast,180,2012-11-17 20:55:00
1:15 PM,50.0,48.2,94,29.92,0.8,SSW,6.9,-,0.05,,Overcast,210,2012-11-17 21:15:00
1:35 PM,50.0,50.0,100,29.92,0.8,SSW,9.2,24.2,0.09,,Overcast,200,2012-11-17 21:35:00
1:55 PM,50.0,50.0,100,29.91,1.0,South,6.9,-,0.11,,Overcast,190,2012-11-17 21:55:00
2:15 PM,50.0,50.0,100,29.91,0.8,SSW,8.1,-,0.01,,Overcast,200,2012-11-17 22:15:00
2:35 PM,50.0,50.0,100,29.91,0.2,South,8.1,17.3,0.02,,Overcast,190,2012-11-17 22:35:00
2:55 PM,50.0,50.0,100,29.92,0.2,South,6.9,21.9,0.04,,Overcast,190,2012-11-17 22:55:00
3:15 PM,50.0,48.2,94,29.92,0.2,SSW,4.6,-,N/A,,Overcast,200,2012-11-17 23:15:00
3:35 PM,50.0,48.2,94,29.92,0.2,South,5.8,18.4,0.01,,Overcast,190,2012-11-17 23:35:00
3:55 PM,48.2,48.2,100,29.93,0.5,South,9.2,16.1,0.01,,Overcast,190,2012-11-17 23:55:00
4:15 PM,48.2,48.2,100,29.93,2.5,SSW,5.8,-,N/A,,Overcast,200,2012-11-18 00:15:00
4:35 PM,48.2,48.2,100,29.94,0.8,South,5.8,-,N/A,,Overcast,180,2012-11-18 00:35:00
4:55 PM,48.2,48.2,100,29.95,4.0,SSW,6.9,-,N/A,,Overcast,210,2012-11-18 00:55:00
5:15 PM,48.2,48.2,100,29.95,5.0,South,5.8,-,N/A,,Overcast,190,2012-11-18 01:15:00
5:35 PM,48.2,48.2,100,29.95,5.0,South,4.6,-,N/A,,Overcast,190,2012-11-18 01:35:00
5:55 PM,48.2,46.4,93,29.95,1.8,South,3.5,-,N/A,,Overcast,170,2012-11-18 01:55:00
6:15 PM,46.4,46.4,100,29.95,5.0,SSE,6.9,-,N/A,,Overcast,160,2012-11-18 02:15:00
6:55 PM,46.4,46.4,100,29.96,10.0,SSE,10.4,-,N/A,,Overcast,150,2012-11-18 02:55:00
7:15 PM,46.4,46.4,100,29.95,1.2,SSE,4.6,-,N/A,,Overcast,150,2012-11-18 03:15:00
7:35 PM,46.4,46.4,100,29.95,0.2,SSE,9.2,16.1,N/A,,Overcast,150,2012-11-18 03:35:00
7:55 PM,46.4,46.4,100,29.95,0.2,SE,9.2,16.1,0.06,,Overcast,140,2012-11-18 03:55:00
8:15 PM,46.4,46.4,100,29.96,1.0,SE,3.5,24.2,0.06,,Overcast,140,2012-11-18 04:15:00
8:35 PM,46.4,46.4,100,29.97,1.0,South,4.6,-,0.16,,Overcast,190,2012-11-18 04:35:00
8:55 PM,46.4,46.4,100,29.98,0.8,South,4.6,-,0.27,,Overcast,190,2012-11-18 04:55:00
9:15 PM,46.4,46.4,100,29.98,1.2,SSE,9.2,-,0.05,,Overcast,150,2012-11-18 05:15:00
9:35 PM,46.4,46.4,100,29.98,0.5,SSE,9.2,-,0.09,,Overcast,150,2012-11-18 05:35:00
9:55 PM,46.4,46.4,100,29.97,0.5,South,6.9,-,0.15,,Overcast,170,2012-11-18 05:55:00
10:15 PM,46.4,46.4,100,29.97,0.5,South,6.9,-,0.01,,Overcast,180,2012-11-18 06:15:00
10:35 PM,46.4,46.4,100,29.98,1.0,South,4.6,-,0.06,,Overcast,180,2012-11-18 06:35:00
10:55 PM,46.4,46.4,100,29.98,1.2,South,3.5,-,0.18,,Overcast,170,2012-11-18 06:55:00
11:15 PM,46.4,46.4,100,29.99,1.0,South,6.9,-,0.01,,Overcast,170,2012-11-18 07:15:00
11:35 PM,46.4,46.4,100,29.99,1.0,South,5.8,-,0.05,,Overcast,180,2012-11-18 07:35:00
11:55 PM,46.4,46.4,100,30.00,1.5,South,4.6,-,0.17,,Overcast,170,2012-11-18 07:55:00